Retour au catalogue

STARLINK-5541

ActifCommunicationsVLEO
NORAD 56475·PAYLOAD·🇺🇸 United States

Lancé May 10, 2023 depuis Vandenberg Space Force Base

Loading…

Prochains Passages (prochaines 24 heures)

TLE

FraisSource: CelesTrak SupGP

Époque: Sep 15, 2026, 02:08 UTC

1 56475C 23064AD  26258.08937500  .00482220  00000+0  37749-1 0  2583
2 56475  70.0006   6.9229 0003165 270.9685 292.3370 15.00706393    13

Suivez STARLINK-5541 en temps réel avec AllMySat

Download on the App Store